Погода в Фьорентино

Сан-Марино     43°54′34″N   12°27′35″E
темп.,
°C
ветер,
м/с
пор.,
м/с
влажн.,
%
обл.,
%
осадки,
мм/ч
давл.,
гПа
погр.,
м
11 мая, вт
вт1123:00+18ююз3356100 0.0 101431
02:00+17юз22585 0.0 101327
05:00+16ю22555 0.0 101332
08:00+18ю3561100 0.0 1012137
11:00+22зсз254396 0.1 1012895
14:00+22всв345454 0.1 1010842
17:00+21юв71160100 0.2 10081516
20:00+16ююз61164100 0.3 1008621
12 мая, ср
ср1223:00+14ююз3673100 0.0 1008202
02:00+13юз377287 0.0 1008347
05:00+11ююз348295 0.0 100773
08:00+15зюз4106793 0.1 10081168
11:00+14ююз1379100 0.8 1009302
14:00+13ссв3486100 1.6 1009204
17:00+15ссз127565 0.8 1008239
20:00+13юз12812 0.9 100896
13 мая, чт
чт1323:00+11юз37778 0.0 1008240
02:00+14зюз6135331 0.1 1006767
05:00+10ююз327438 0.0 100644
08:00+13ююз236988 0.0 1006217
11:00+17зюз4653100 0.0 10061676
14:00+19юз2552100 0.1 10051308
17:00+17с14631 0.6 1005847
20:00+14вюв22645 0.6 100528
14 мая, пт
пт1423:00+11ююз34710 0.0 100654
02:00+13зюз6136310 0.0 1006713
05:00+12юз4106123 0.0 1007428
08:00+14юз496541 0.0 1008858
11:00+17зюз6956100 0.0 10091395
14:00+19зюз684898 0.1 10091358
17:00+18ю795798 0.1 1008760
20:00+14ююз348096 1.5 100879
15 мая, сб
сб1523:00+12ю2394100 7.0 1009120
02:00+12ю3792100 13.3 1008311
05:00+11сз2697100 1.9 1008330
08:00+12зсз4890100 3.1 1009565
11:00+13сз6988100 0.1 1011681
14:00+16сз567291 0.3 1011929
17:00+17с2365100 0.1 1010871
20:00+14в1185100 0.2 101024